sat.trackr.live / text

‹ back to catalog

TWILIGHT-1 OBJECT AH

NORAD 67394 · 2026-004AH

PAYLOAD ACTIVE UNKNOWN

§ Identity

Operator
Country
TBD
Launch date
2026-01-11
Launch site
AFWTR
Launch vehicle
Mass (kg)
RCS (m²)

External: N2YO · Heavens-Above · Gunter

§ Orbital elements

Epoch: 2026-05-24T23:29:18.130848Z

Period
94.79 min
Inclination
97.4491°
Eccentricity
0.0010423
Mean motion
15.19206849 rev/d
Perigee alt
501.1 km
Apogee alt
515.4 km
Semi-major
6,886.4 km
B*
1.7843e-4
RAAN
144.3824°
Arg perigee
63.4999°
Mean anomaly
296.7303°
Rev number
2,024

§ Raw data

TWILIGHT-1 OBJECT AH1 67394U 26004AH  26144.97868207  .00003692  00000+0  17843-3 0  99902 67394  97.4491 144.3824 0010423  63.4999 296.7303 15.19206849 20244

JSON: /api/v1/satellites/67394 · /tle

For live sub-satellite position, see the globe view (requires WebGL).

§ Visibility from observer

Set your observer location to see the next 7 days of passes ≥ 10°. The values pass through the URL so the page stays shareable.

No JS? Fill the form by hand. The geolocation button needs JavaScript.